Wind_Speed
38 35 34 35 36 36 27 8 3 11 24 3 3 4 6 3 3 4 5 2 3 3 3 3 4 1 2 6 2 2 1 4 2 0 3 3 1 2 4 4 4 1 4 6
40 39 41 41 39 38 15 5 2 13 4 6 4 3 4 4 3 5 5 8 5 3 2 1 1 2 2 7 5 2 1 1 2 6 6 4 2 2 3 5 3 5 5 5
43 43 38 37 36 36 14 3 3 2 4 1 6 6 6 10 5 4 4 5 4 3 2 2 4 2 3 4 3 2 3 2 4 7 4 3 3 2 3 4 3 3 6 3
44 40 38 39 41 40 16 2 4 4 6 9 4 7 6 13 9 5 8 4 6 6 4 3 4 1 0 2 3 3 3 2 0 1 1 1 3 4 3 5 5 5 4 7
45 42 41 40 42 41 5 5 4 2 0 9 17 10 14 13 10 6 6 5 8 6 6 7 6 5 3 4 2 2 3 3 2 3 5 2 6 7 8 9 6 8 6 16
47 45 43 45 49 40 4 4 4 4 1 5 13 14 10 14 9 6 5 7 6 5 11 8 7 6 3 3 5 5 4 5 2 3 3 4 7 8 8 4 4 7 12 14
50 48 45 47 50 40 12 8 5 3 2 5 11 13 11 10 10 9 2 4 6 6 4 5 4 4 4 4 4 4 5 4 2 3 3 2 6 4 5 8 10 8 7 6
52 52 50 51 49 40 19 12 4 3 2 4 4 7 7 7 5 3 3 2 5 7 5 3 3 3 2 2 6 5 3 5 2 3 3 7 9 4 2 4 7 5 6 5
54 54 54 51 50 45 18 16 10 3 5 3 0 6 5 5 5 3 4 1 2 5 3 3 5 5 4 5 2 6 4 3 4 3 2 5 5 4 1 1 6 5 7 8
56 57 55 53 50 44 24 10 12 5 4 1 2 3 5 4 3 3 4 3 3 2 3 3 3 4 4 5 6 4 3 2 6 2 4 7 6 9 3 2 6 4 8 7
58 58 58 55 50 46 26 10 18 6 3 2 4 3 3 3 2 5 4 3 2 2 5 6 4 4 6 5 5 6 7 6 3 2 4 12 5 3 6 6 2 6 6 7
59 61 60 55 54 48 31 12 14 24 6 3 2 5 9 5 1 4 3 3 1 3 3 1 3 2 2 4 5 2 7 7 5 9 7 4 4 6 5 5 5 5 6 6
60 59 57 52 52 45 31 25 19 12 4 2 3 2 1 6 7 5 3 2 2 2 2 4 2 5 3 4 5 4 4 4 4 3 6 8 8 4 4 6 7 7 7 8
59 59 55 52 50 43 32 28 23 12 7 3 3 3 2 1 2 6 14 6 5 1 2 2 3 3 3 3 3 5 6 5 5 4 6 6 6 7 7 6 4 4 4 8
59 57 57 55 50 37 28 24 22 15 8 4 2 2 2 2 3 4 5 13 4 2 2 0 3 2 2 1 2 3 5 7 5 6 7 4 6 1 1 6 7 9 7 4
60 57 54 51 44 39 35 4 8 14 13 4 1 3 2 2 3 2 2 5 4 2 1 2 3 2 3 1 4 5 6 5 7 5 4 5 4 5 3 3 6 7 8 13
54 53 53 49 43 40 8 6 20 20 16 3 2 2 3 1 2 1 1 2 2 3 3 4 3 2 2 1 5 5 6 5 5 5 0 3 5 5 5 4 5 5 11 15
54 50 49 45 37 27 13 22 30 25 12 5 3 3 3 2 2 0 0 1 2 1 3 1 3 1 3 5 8 7 10 10 10 10 9 7 4 4 6 6 3 5 8 8
51 49 45 34 12 6 7 26 20 10 5 4 3 5 4 3 2 2 1 2 0 0 3 3 4 3 6 7 6 9 9 8 10 13 11 8 8 9 8 7 7 8 9 7
51 34 10 4 8 42 28 6 3 4 3 2 2 1 3 4 2 0 3 1 2 2 4 2 4 9 20 8 6 7 8 10 11 13 15 5 5 8 8 9 8 10 9 12
14 3 3 28 35 9 3 3 3 3 2 3 3 5 4 1 4 3 2 2 2 2 4 4 3 6 4 12 19 18 18 17 15 9 6 6 8 8 9 9 10 14 18 14
13 23 24 9 4 3 5 3 1 3 6 5 6 6 4 3 3 3 3 3 2 5 2 2 4 4 9 10 11 12 12 11 10 14 9 13 14 15 12 10 12 20 27 26
26 7 4 4 2 4 7 8 5 6 4 5 5 4 4 2 2 3 3 5 5 3 1 4 4 4 7 6 4 6 6 9 8 10 12 17 19 22 18 16 26 24 18 22
3 3 6 4 4 5 6 9 5 4 4 9 8 4 4 2 3 3 3 4 1 1 4 5 3 9 9 6 3 3 5 6 8 9 9 11 14 15 16 16 19 17 18 21
3 3 4 4 3 1 2 4 4 3 9 9 4 3 3 2 3 4 3 3 5 6 4 4 5 7 6 6 4 5 7 7 7 8 7 8 6 7 11 9 12 13 14 17
3 2 3 1 3 1 1 4 4 4 8 5 3 4 4 4 4 5 6 4 6 4 4 4 3 4 5 4 4 5 6 7 9 10 7 4 4 4 4 4 4 4 11 18
4 3 1 2 2 4 3 3 4 8 9 4 3 6 7 2 3 5 5 5 3 4 4 3 5 6 5 6 6 7 10 9 6 4 5 3 2 2 2 1 1 3 6 12
Wind_Direction
200 197 195 187 174 170 154 127 142 170 159 137 193 172 163 179 228 199 229 259 229 232 334 22 24 66 331 339 289 87 6 129 159 311 336 329 109 146 124 122 217 109 151 271
198 195 192 181 172 169 138 126 129 167 152 192 178 146 176 194 221 201 184 212 206 182 201 270 334 85 350 27 39 74 84 31 65 351 347 4 84 71 104 101 74 191 145 260
200 195 186 183 179 170 146 104 138 142 190 169 183 165 195 219 213 213 166 217 173 127 224 272 206 171 15 13 69 353 88 115 162 191 204 167 241 160 119 116 110 196 221 261
200 192 187 184 178 171 178 115 209 192 199 195 157 181 190 209 220 226 173 226 194 145 185 188 223 303 257 13 14 42 89 169 145 170 304 321 269 228 228 197 198 183 234 222
198 192 187 185 180 180 153 129 139 13 46 152 191 194 207 201 215 184 221 183 187 176 178 189 199 161 200 220 99 122 11 230 114 308 321 306 258 257 241 238 221 237 244 256
198 193 188 183 182 179 145 147 119 110 168 155 187 207 199 206 193 247 221 180 135 183 230 199 212 207 218 174 168 173 149 138 102 262 345 320 301 234 225 229 218 224 244 252
200 194 190 187 186 181 153 127 116 103 216 183 198 182 189 186 201 218 240 178 150 221 114 121 83 165 237 292 248 160 141 116 103 201 29 309 245 290 233 232 250 230 254 232
200 194 191 190 189 182 168 155 141 137 122 147 165 181 178 209 226 213 235 240 211 155 81 57 39 359 38 290 241 219 168 127 133 161 201 299 299 278 28 251 275 212 207 120
198 193 191 189 189 183 181 151 146 131 124 221 50 177 165 164 205 231 242 341 91 68 96 118 177 201 162 218 222 30 93 49 144 130 173 243 245 260 338 141 283 202 147 152
196 191 190 190 186 181 177 148 143 97 105 360 9 153 156 131 147 186 172 173 196 71 130 146 169 225 197 184 177 183 97 33 215 167 227 277 230 266 12 126 242 165 154 158
192 191 190 188 183 179 171 127 175 136 94 342 31 21 129 101 129 155 201 84 307 60 182 199 203 181 215 188 178 172 170 177 199 127 221 261 199 89 184 219 275 173 167 180
188 191 187 186 183 181 177 124 128 172 85 167 118 84 64 70 132 137 356 130 89 182 114 110 95 224 183 167 239 146 223 190 187 186 208 232 209 206 216 189 185 210 181 180
187 183 185 180 181 180 175 154 141 120 99 353 82 95 13 93 41 29 117 4 82 62 148 155 152 264 149 180 233 211 255 154 219 101 229 234 233 255 259 194 216 191 182 178
178 178 178 177 177 171 168 158 160 117 102 114 273 352 93 16 40 82 89 104 42 75 95 135 151 189 175 216 228 192 202 143 191 265 286 287 279 226 229 207 213 203 171 183
172 173 172 173 167 163 162 159 166 172 126 156 237 324 218 212 127 108 138 114 94 340 342 334 224 212 145 313 39 241 188 186 174 223 229 190 245 2 174 195 206 206 184 163
162 161 162 157 154 154 134 74 155 158 160 96 99 315 345 60 165 159 191 148 107 133 19 306 268 234 100 134 238 238 216 204 184 205 187 198 231 254 200 206 246 244 201 210
157 156 154 150 151 146 119 160 149 136 130 84 38 328 307 1 89 85 120 146 178 145 164 193 270 315 137 241 235 243 230 242 232 254 72 269 214 228 168 201 260 253 237 232
142 147 149 145 140 116 84 128 137 140 96 79 126 241 8 170 145 210 181 113 37 253 192 121 197 215 167 243 229 226 253 267 265 244 223 220 220 223 253 251 227 212 228 219
141 142 141 119 105 100 115 138 135 108 95 143 131 153 199 183 125 148 72 98 127 333 206 221 139 216 219 228 180 211 220 203 228 259 267 205 210 224 237 240 226 221 238 215
135 119 71 90 118 121 120 76 49 22 358 55 173 119 156 129 135 193 106 86 219 242 240 122 202 246 244 216 218 227 234 223 227 245 260 226 224 226 236 221 226 217 222 219
118 91 83 125 128 89 48 95 117 155 210 207 200 179 139 243 128 143 196 153 186 240 265 175 253 261 226 214 230 237 233 231 236 245 264 211 216 225 230 242 227 224 228 211
120 112 115 97 73 73 99 99 140 200 217 192 181 187 155 171 130 113 165 186 177 246 140 142 263 269 234 217 224 239 240 239 242 246 248 261 262 246 242 241 243 234 237 234
112 87 96 129 135 127 151 172 195 209 176 169 154 127 133 97 102 105 179 210 217 107 148 226 224 259 267 246 246 249 229 233 242 253 242 249 255 262 245 245 254 258 252 243
83 110 125 153 164 192 204 195 155 192 138 145 141 123 140 169 116 130 211 232 97 229 233 231 235 236 251 267 252 199 249 217 220 240 243 239 245 262 274 258 267 263 238 226
102 116 124 178 182 163 251 114 112 178 145 140 97 69 119 155 133 185 181 199 242 218 221 214 234 245 254 268 268 264 277 281 261 246 245 256 242 254 284 306 302 284 251 205
116 137 127 70 88 314 189 175 149 152 142 125 77 137 131 191 180 193 202 195 223 242 214 225 257 254 258 249 255 269 272 268 263 270 254 247 257 272 297 328 333 241 203 183
140 192 135 155 96 185 189 134 149 142 142 168 145 170 198 112 189 210 188 211 211 218 246 236 226 247 255 260 287 289 289 287 261 203 200 207 214 196 168 157 41 162 181 190
Height
747 755 759 765 771 783 788 796 805 805 810 821 819 820 815 815 817 818 820 818 820 821 817 817 818 817 815 807 806 812 811 824 832 821 813 809 810 818 829 862 847 869 874 857
743 750 757 762 768 777 783 793 802 804 807 811 813 809 812 814 817 818 820 821 817 813 819 823 818 814 809 808 811 813 812 829 847 838 827 815 818 819 825 836 850 854 868 849
739 745 752 759 765 774 781 792 803 806 807 807 802 811 814 817 811 812 812 815 815 815 821 819 820 816 813 809 812 815 814 827 833 849 831 826 826 821 821 835 865 851 852 827
734 741 749 757 763 770 781 788 794 795 798 798 804 808 809 813 816 811 811 816 816 818 828 826 823 817 815 811 811 813 819 832 826 826 824 823 824 825 826 831 834 843 829 830
729 739 745 754 762 771 775 785 792 797 797 791 800 806 804 807 812 813 812 813 814 816 824 823 827 820 819 816 814 816 824 838 829 852 832 827 829 825 826 826 826 826 823 818
724 733 741 749 758 768 771 776 781 784 796 795 799 795 803 803 807 807 805 808 813 819 814 812 813 813 812 809 817 822 827 841 846 841 837 834 840 826 818 815 811 812 818 801
718 728 738 747 754 759 765 773 778 789 803 793 788 791 796 801 804 807 804 806 810 807 803 806 810 812 814 816 815 819 830 835 851 854 841 859 816 810 807 812 805 803 802 800
712 723 733 741 751 760 766 770 777 785 797 793 794 792 795 797 801 807 805 803 804 802 806 822 823 824 816 815 816 820 821 838 853 851 859 834 811 802 803 805 803 797 799 805
706 718 727 737 749 760 766 769 775 780 789 796 791 793 795 804 806 808 804 801 801 805 817 827 830 829 822 823 818 824 828 829 837 862 857 842 818 802 798 797 815 794 799 805
701 711 723 734 746 759 765 768 772 778 788 794 793 793 796 796 803 810 805 803 805 804 826 828 830 835 813 825 825 829 838 843 834 853 842 824 805 798 797 821 816 796 799 805
695 707 720 730 743 755 763 769 770 777 790 795 793 794 796 799 803 809 803 809 810 819 812 816 835 831 819 815 814 823 828 837 841 847 835 822 796 800 811 804 795 794 798 800
690 703 715 726 739 751 761 768 772 777 785 795 795 796 796 796 798 801 803 801 804 805 808 819 816 824 821 820 823 811 819 817 826 824 813 796 792 791 789 791 793 793 795 796
685 697 710 722 737 748 757 767 772 775 788 797 795 797 797 797 798 798 802 804 802 804 805 814 814 819 815 820 822 807 805 804 809 809 796 794 790 788 786 787 787 787 789 793
682 693 706 722 735 747 755 762 768 773 784 796 800 795 796 798 798 798 799 803 805 807 807 811 819 817 806 813 805 809 803 802 802 808 797 790 786 783 780 782 783 785 787 789
678 692 705 719 732 744 754 763 769 772 777 800 805 797 798 797 797 798 801 802 808 812 809 818 815 808 807 816 813 815 796 795 807 802 786 786 783 779 777 779 781 781 785 789
675 690 703 716 729 742 753 770 773 773 776 790 808 799 797 795 796 798 803 803 807 815 815 815 806 800 806 817 814 788 783 782 781 781 779 781 778 779 777 779 780 780 781 782
674 693 706 718 732 741 750 759 761 771 775 791 810 810 799 797 797 800 802 803 805 809 813 817 814 802 802 807 798 784 778 778 778 776 777 778 775 775 773 775 775 776 777 777
684 700 711 723 734 744 753 759 763 770 778 788 809 810 806 797 800 804 802 806 805 804 806 812 811 808 805 798 783 777 774 774 773 774 772 772 771 771 771 771 772 774 775 772
691 703 715 726 738 749 757 764 769 773 780 798 802 800 804 796 797 802 804 804 808 806 811 806 806 804 791 769 775 774 771 769 768 764 763 767 768 768 768 769 769 771 770 770
697 706 720 734 741 749 759 770 776 780 785 789 795 791 791 793 799 803 806 804 805 803 800 797 799 776 758 763 766 765 764 762 762 765 759 763 764 765 763 763 761 760 760 761
699 714 729 738 746 751 766 777 782 789 790 786 784 789 787 792 796 799 800 801 803 802 801 796 791 768 763 753 750 751 750 748 748 750 750 753 755 757 757 756 755 755 755 755
702 710 729 740 751 762 770 782 784 781 781 776 775 780 782 789 790 796 799 799 801 794 795 797 788 767 746 740 740 740 742 744 746 745 746 746 747 748 748 747 747 746 744 745
708 719 735 742 753 757 765 778 774 768 767 767 768 780 781 786 787 793 795 791 793 789 806 780 769 758 741 740 739 738 737 739 740 741 742 742 741 739 740 740 737 736 738 738
714 724 734 737 749 747 744 736 744 751 754 757 759 772 778 782 788 787 787 786 785 795 781 771 765 744 738 737 736 735 734 736 737 737 735 736 736 734 733 733 732 732 731 731
718 723 730 735 733 736 737 736 743 747 745 751 761 771 772 781 779 781 778 782 779 765 759 759 744 737 736 734 733 732 732 732 732 731 731 730 729 729 728 728 727 726 726 728
720 725 728 732 733 739 739 736 739 737 743 749 755 767 773 770 767 767 766 764 760 754 749 739 736 733 730 728 728 729 730 729 727 726 725 725 727 727 727 727 726 726 726 728
717 719 722 727 725 724 728 728 732 733 740 751 759 757 755 760 763 759 756 757 755 746 739 735 733 731 728 726 726 725 724 722 722 723 724 724 725 726 727 728 728 728 729 731